Petersburg, AK

9:29 PM AKST on February 10, 2016 (GMT -0900)
Johnson Petersburg

Weather History for PAPG - March, 2013

Change the Weather History Date:

Wednesday, March 13, 2013

  Actual Average Record
Temperature  
Mean Temperature 30 °F -  
Max Temperature 32 °F 36 °F 50 °F (1984)
Min Temperature 28 °F 25 °F 15 °F (1997)
Degree Days  
Heating Degree Days 35    
Moisture  
Dew Point 26 °F    
Average Humidity 84    
Maximum Humidity 93    
Minimum Humidity 75    
Precipitation  
Precipitation 0.07 in - - ()
Sea Level Pressure  
Sea Level Pressure 29.86 in    
Wind  
Wind Speed 0 mph (East)    
Max Wind Speed 5 mph    
Max Gust Speed -    
Visibility 6 miles    
Events Snow    
Averages and records for this station are not official NWS values.
T = Trace of Precipitation, MM = Missing Value Source: NWS Daily Summary

Daily Weather History Graph

Daily Weather History Graph

Search for Another Location

Airport or City:

Trip Planner

Search our weather history database for the weather conditions in past years. The results will help you decide how hot, cold, wet, or windy it might be!

Date:

Astronomy

Mar. 13, 2013 Rise Set
Actual Time 7:11 AM AKDT 6:51 PM AKDT
Civil Twilight 6:33 AM AKDT 7:29 PM AKDT
Nautical Twilight 5:49 AM AKDT 8:14 PM AKDT
Astronomical Twilight 5:03 AM AKDT 9:00 PM AKDT
Moon 7:24 AM AKDT (3/13) 9:53 PM AKDT (3/13)
Length of Visible Light 12h 55m
Length of Day
11h 40m
Waxing Crescent, 4% of the Moon is Illuminated
Mar 13
Waxing Crescent
Mar 19
First Quarter
Mar 27
Full
Apr 2
Last Quarter
Apr 10
New

Hourly Weather History & Observations

Time (AKDT) Temp. Windchill Dew Point Humidity Pressure Visibility Wind Dir Wind Speed Gust Speed Precip Events Conditions
12:16 AM 32.0 °F - 30.2 °F 93% 29.71 in 3.0 mi Calm Calm - 0.01 in   Mostly Cloudy
12:36 AM 32.0 °F - 28.4 °F 87% 29.71 in 10.0 mi Calm Calm - 0.02 in   Overcast
3:16 AM - - - N/A% - - North - - N/A   Unknown
3:36 AM 30.2 °F - 28.4 °F 93% 29.74 in 1.2 mi Calm Calm - N/A   Unknown
3:56 AM 30.2 °F - 28.4 °F 93% 29.74 in 2.0 mi Calm Calm - N/A   Mostly Cloudy
4:16 AM 30.2 °F - 28.4 °F 93% 29.74 in 4.0 mi Calm Calm - N/A   Mostly Cloudy
4:36 AM 30.2 °F - 26.6 °F 86% 29.75 in 9.0 mi Calm Calm - N/A   Mostly Cloudy
4:56 AM 30.2 °F - 26.6 °F 86% 29.75 in 10.0 mi Calm Calm - 0.02 in   Overcast
5:16 AM 30.2 °F - 26.6 °F 86% 29.76 in 10.0 mi Calm Calm - N/A   Overcast
5:36 AM 30.2 °F - 26.6 °F 86% 29.76 in 9.0 mi Calm Calm - 0.01 in   Overcast
5:56 AM 30.2 °F - 24.8 °F 80% 29.77 in 5.0 mi Calm Calm - 0.01 in   Overcast
6:16 AM 30.2 °F - 26.6 °F 86% 29.77 in 5.0 mi Calm Calm - N/A   Overcast
6:36 AM 30.2 °F - 26.6 °F 86% 29.78 in 5.0 mi Calm Calm - N/A   Overcast
6:56 AM 28.4 °F - 26.6 °F 93% 29.78 in 1.5 mi Calm Calm - N/A   Overcast
7:16 AM 28.4 °F - 26.6 °F 93% 29.78 in 1.5 mi Calm Calm - N/A   Overcast
7:36 AM 28.4 °F - 26.6 °F 93% 29.79 in 1.5 mi Calm Calm - N/A   Overcast
7:56 AM 30.2 °F - 26.6 °F 86% 29.80 in 1.5 mi Calm Calm - 0.01 in   Overcast
8:16 AM 30.2 °F - 26.6 °F 86% 29.81 in 1.5 mi Calm Calm - 0.01 in   Overcast
8:36 AM 30.2 °F - 26.6 °F 86% 29.82 in 4.0 mi Calm Calm - 0.01 in   Overcast
8:56 AM 30.2 °F - 26.6 °F 86% 29.82 in 7.0 mi Calm Calm - 0.01 in   Overcast
9:16 AM 30.2 °F - 26.6 °F 86% 29.83 in 7.0 mi Calm Calm - N/A   Overcast
9:36 AM 30.2 °F - 26.6 °F 86% 29.84 in 7.0 mi Calm Calm - N/A   Overcast
9:56 AM 30.2 °F - 26.6 °F 86% 29.85 in 7.0 mi Calm Calm - N/A   Overcast
10:16 AM 30.2 °F - 24.8 °F 80% 29.85 in 7.0 mi Calm Calm - N/A   Overcast
10:36 AM 30.2 °F - 24.8 °F 80% 29.86 in 7.0 mi Calm Calm - N/A   Overcast
10:56 AM 30.2 °F - 24.8 °F 80% 29.86 in 7.0 mi Calm Calm - N/A   Overcast
11:16 AM 30.2 °F - 24.8 °F 80% 29.87 in 7.0 mi Calm Calm - N/A   Overcast
11:36 AM 30.2 °F - 24.8 °F 80% 29.88 in 7.0 mi Calm Calm - 0.01 in   Overcast
12:16 PM 32.0 °F - 26.6 °F 80% 29.90 in 10.0 mi Calm Calm - N/A   Overcast
12:36 PM 30.2 °F - 24.8 °F 80% 29.90 in 10.0 mi Calm Calm - 0.01 in   Overcast
1:36 PM 30.2 °F - 24.8 °F 80% 29.91 in 10.0 mi Calm Calm - N/A   Mostly Cloudy
1:56 PM 30.2 °F - 24.8 °F 80% 29.91 in 7.0 mi Calm Calm - N/A   Overcast
2:16 PM 30.2 °F - 24.8 °F 80% 29.91 in 7.0 mi Calm Calm - N/A   Overcast
2:52 PM 30.2 °F 25.4 °F 24.8 °F 80% 29.90 in 7.0 mi East 4.6 mph - N/A Snow Snow Showers
3:16 PM 32.0 °F - 24.8 °F 75% 29.91 in 7.0 mi Calm Calm - N/A   Mostly Cloudy
3:36 PM 32.0 °F - 24.8 °F 75% 29.91 in 7.0 mi Calm Calm - N/A   Mostly Cloudy
3:56 PM 32.0 °F - 24.8 °F 75% 29.91 in 10.0 mi Calm Calm - N/A   Mostly Cloudy
4:16 PM 32.0 °F - 24.8 °F 75% 29.91 in 10.0 mi Calm Calm - N/A   Mostly Cloudy
4:36 PM 32.0 °F - 24.8 °F 75% 29.90 in 10.0 mi Calm Calm - N/A   Mostly Cloudy
4:56 PM 32.0 °F - 24.8 °F 75% 29.90 in 7.0 mi Calm Calm - N/A   Mostly Cloudy
5:16 PM 32.0 °F - 24.8 °F 75% 29.89 in 7.0 mi Calm Calm - N/A   Mostly Cloudy
5:36 PM 32.0 °F - 24.8 °F 75% 29.89 in 7.0 mi Calm Calm - N/A   Mostly Cloudy
5:56 PM 32.0 °F - 24.8 °F 75% 29.89 in 10.0 mi Calm Calm - N/A   Mostly Cloudy
6:16 PM 32.0 °F - 24.8 °F 75% 29.89 in 10.0 mi Calm Calm - N/A   Mostly Cloudy
6:36 PM 30.2 °F - 26.6 °F 86% 29.90 in 10.0 mi Calm Calm - N/A   Mostly Cloudy
6:56 PM 30.2 °F - 26.6 °F 86% 29.90 in 10.0 mi Calm Calm - N/A   Overcast
7:16 PM 30.2 °F - 26.6 °F 86% 29.90 in 2.0 mi Calm Calm - N/A   Overcast
7:36 PM 30.2 °F - 26.6 °F 86% 29.90 in 2.0 mi Calm Calm - N/A   Overcast
7:56 PM 30.2 °F - 28.4 °F 93% 29.91 in 3.0 mi Calm Calm - N/A   Overcast
8:16 PM 30.2 °F - 26.6 °F 86% 29.91 in 3.0 mi Calm Calm - N/A   Overcast
8:36 PM 30.2 °F - 26.6 °F 86% 29.92 in 3.0 mi Calm Calm - N/A   Overcast
8:56 PM 30.2 °F - 26.6 °F 86% 29.92 in 5.0 mi Calm Calm - N/A   Overcast
9:16 PM 30.2 °F - 26.6 °F 86% 29.92 in 5.0 mi Calm Calm - N/A   Overcast
9:36 PM 30.2 °F - 26.6 °F 86% 29.92 in 5.0 mi Calm Calm - N/A   Overcast
9:56 PM 30.2 °F - 26.6 °F 86% 29.92 in 5.0 mi Calm Calm - N/A   Overcast
10:16 PM 30.2 °F - 26.6 °F 86% 29.92 in 7.0 mi Calm Calm - N/A   Mostly Cloudy
10:36 PM 30.2 °F - 26.6 °F 86% 29.92 in 10.0 mi Calm Calm - N/A   Overcast
10:56 PM 30.2 °F - 26.6 °F 86% 29.92 in 1.8 mi Calm Calm - N/A   Mostly Cloudy
11:16 PM 30.2 °F - 26.6 °F 86% 29.92 in 10.0 mi Calm Calm - N/A   Mostly Cloudy
11:36 PM 30.2 °F - 26.6 °F 86% 29.92 in 10.0 mi Calm Calm - N/A   Overcast
11:56 PM 30.2 °F - 24.8 °F 80% 29.92 in 10.0 mi Calm Calm - N/A   Overcast